EHI
0 0 0 0 0 0 0 0 0 0 0 0 0 0 0 0 0 0 0 0 0 0 0 0 0 0 0 0 0 0 0 0 0 0 0 0 0 0 0 0 0 0 0
0 0 0 0 0 0 0 0 0 0 0 0 0 0 0 0 0 0 0 0 0 0 0 0 0 0 0 0 0 0 0 0 0 0 0 0 0 0 0 0 0 0 0
0 0 0 0 0 0 0 0 0 0 0 0 0 0 0 0 0 0 0 0 0 0 0 0 0 0 0 0 0 0 0 0 0 0 0 0 0 0 0 0 0 0 0
0 0 0 0 0 0 0 0 0 0 0 0 0 0 0 0 0 0 0 0 0 0 0 0 0 0 0 0 0 0 0 0 0 0 0 0 0 0 0 0 0 0 0
0 0 0 0 0 0 0 0 0 0 0 0 0 0 0 0 0 0 0 0 0 0 0 0 0 0 0 0 0 0 0 0 0 0 0 0 0 0 0 1 0 0 0
0 0 0 0 0 0 0 0 0 0 0 0 0 0 0 0 0 0 0 0 0 0 0 0 0 0 0 0 0 0 0 0 0 0 0 0 0 0 0 0 0 0 0
0 0 0 0 0 0 0 0 0 0 0 0 0 0 0 0 0 0 0 0 0 0 0 0 0 0 0 0 0 0 0 0 0 0 0 0 0 0 0 0 0 0 0
0 0 0 0 0 0 0 0 0 0 0 0 0 0 0 0 0 0 0 0 0 0 0 0 0 0 0 0 0 0 0 0 0 0 0 0 0 0 0 0 0 0 0
0 0 0 0 0 0 0 0 0 0 0 0 0 0 0 0 0 0 0 0 0 0 0 0 0 0 0 0 0 0 0 0 0 0 0 0 0 0 0 0 0 0 0
0 0 0 0 0 0 0 0 0 0 0 0 0 0 0 0 0 0 0 0 0 0 0 0 0 0 0 0 0 0 0 0 0 0 0 0 0 0 0 0 0 0 0
0 0 0 0 0 0 0 0 0 0 0 0 0 0 0 0 0 0 0 0 0 0 0 0 0 0 0 0 0 0 0 0 0 0 0 0 0 0 0 0 0 0 0
0 0 0 0 0 0 0 0 0 0 0 0 0 0 0 0 0 0 0 0 0 0 0 0 0 0 0 0 0 0 0 0 0 0 0 0 0 0 0 0 0 0 0
0 0 0 0 0 0 0 0 0 0 0 0 0 0 0 0 0 0 0 0 0 0 0 0 0 0 0 0 0 0 0 0 0 0 0 0 0 0 0 0 0 0 0
0 0 0 0 0 0 0 0 0 0 0 0 0 0 0 0 0 0 0 0 0 0 0 0 0 0 0 0 0 0 0 0 0 0 0 0 0 0 0 0 0 0 0
0 0 0 0 0 0 0 0 0 0 0 0 0 0 0 0 0 0 0 0 0 0 0 0 0 0 0 0 0 0 0 0 0 0 0 0 0 0 0 0 0 0 0
0 0 0 0 0 0 0 0 0 0 0 0 0 0 0 0 0 0 0 0 0 0 0 0 0 0 0 0 0 0 0 0 0 0 0 0 0 0 0 0 0 0 0
0 0 0 0 0 0 0 0 0 0 0 0 0 0 0 0 0 0 0 0 0 0 0 0 0 0 0 0 0 0 0 0 0 0 0 0 0 0 0 0 0 0 0
0 0 0 0 0 0 0 0 0 0 0 0 0 0 0 0 0 0 0 0 0 0 0 0 0 0 0 0 0 0 0 0 0 0 0 0 0 0 0 0 0 0 0
0 0 0 0 0 0 0 0 0 0 0 0 0 0 0 0 0 0 0 0 0 0 0 0 0 0 0 0 0 0 0 0 0 0 0 0 0 0 0 0 0 0 0
0 0 0 0 0 0 0 0 0 0 0 0 0 0 0 0 0 0 0 0 0 0 0 0 0 0 0 0 0 0 0 0 0 0 0 0 0 0 0 0 0 0 0
0 0 0 0 0 0 0 0 0 0 0 0 0 0 0 0 0 0 0 0 0 0 0 0 0 0 0 0 0 0 0 0 0 0 0 0 0 0 0 0 0 0 0
0 0 0 0 0 0 0 0 0 0 0 0 0 0 0 0 0 0 0 0 0 0 0 0 0 0 0 0 0 0 0 0 0 0 0 0 0 0 0 0 0 0 0
0 0 0 0 0 0 0 0 0 0 0 0 0 0 0 0 0 0 0 0 0 0 0 0 0 0 0 0 0 0 0 0 0 0 0 0 0 0 0 0 0 0 0
0 0 0 0 0 0 0 0 0 0 0 0 0 0 0 0 0 0 0 0 0 0 0 0 0 0 0 0 0 0 0 0 0 0 0 0 0 0 0 0 0 0 0
0 0 0 0 0 0 0 0 0 0 0 0 0 0 0 0 0 0 0 0 0 0 0 0 0 0 0 0 0 0 0 0 0 0 0 0 0 0 0 0 0 0 0
0 0 0 0 0 0 0 0 0 0 0 0 0 0 0 0 0 0 0 0 0 0 0 0 0 0 0 0 0 0 0 0 0 0 0 0 0 0 0 0 0 0 0
Wind_Speed
4 3 3 2 1 1 1 2 4 4 4 3 3 3 3 4 4 4 6 7 7 7 6 5 5 5 5 6 7 6 7 6 6 6 6 6 6 6 5 5 5 5 6
5 4 4 3 2 1 0 1 2 3 4 3 3 2 3 3 3 4 5 7 7 7 6 6 5 5 5 6 6 6 5 5 4 5 6 5 5 3 4 4 4 5 4
7 6 5 4 3 2 1 1 1 2 3 3 2 1 1 1 2 3 4 6 7 7 6 6 6 5 5 5 6 6 6 5 5 4 4 5 5 5 4 4 3 3 3
7 6 6 5 4 3 2 2 1 1 1 1 1 2 2 2 3 3 3 5 5 6 6 6 6 5 5 5 5 5 5 5 5 4 4 5 5 6 5 4 4 4 5
6 7 6 6 5 4 3 3 2 2 1 1 1 2 2 2 2 3 4 4 4 5 6 6 5 5 5 5 6 6 5 4 5 4 4 5 5 5 6 7 5 5 4
6 6 6 5 5 4 4 4 4 3 2 2 2 2 2 2 2 3 3 3 3 4 5 5 5 5 5 5 5 5 5 4 5 4 4 4 4 4 5 7 7 6 5
5 6 6 6 6 6 5 5 5 4 4 3 3 2 3 2 3 3 3 3 3 3 5 5 5 5 5 5 5 5 5 5 5 4 4 4 4 4 5 6 7 7 6
4 5 6 6 6 6 6 6 6 6 5 4 4 3 3 2 2 3 3 3 3 3 4 5 5 5 5 5 5 4 4 4 5 5 5 4 4 4 4 5 6 6 6
3 4 5 6 6 7 7 7 7 7 6 5 4 4 4 3 3 3 3 3 3 3 4 4 5 5 5 5 5 4 4 4 4 5 5 4 4 4 4 4 4 5 6
4 5 5 6 6 6 6 7 8 7 6 6 5 4 4 4 4 3 3 3 3 3 4 4 4 4 4 5 4 4 4 4 4 4 4 4 4 3 3 3 4 4 5
6 6 5 5 6 6 6 6 7 7 6 6 6 6 5 4 4 4 4 3 3 3 4 4 4 4 4 4 4 4 5 5 4 4 4 5 5 4 3 3 4 4 4
7 6 6 5 5 6 6 7 7 7 7 7 6 6 5 5 5 4 4 4 4 4 4 4 4 4 4 4 4 4 4 4 4 4 4 5 4 5 4 4 5 5 5
7 6 6 6 6 6 6 7 7 7 7 6 6 6 6 6 5 5 4 4 4 4 4 4 4 4 4 4 4 4 4 4 4 4 5 5 6 6 5 5 5 5 6
7 7 7 6 6 6 6 6 7 7 7 7 7 7 7 6 6 5 4 4 4 4 4 4 4 4 4 4 4 4 4 4 4 4 5 5 6 6 7 6 6 6 7
8 7 7 7 7 7 6 6 6 6 7 7 8 8 7 6 6 5 5 4 4 4 4 4 4 4 4 4 4 4 5 5 4 4 4 5 6 7 7 6 7 7 6
8 8 8 8 8 7 7 6 6 6 7 8 8 7 7 6 6 6 5 5 5 5 5 5 4 4 3 5 7 6 5 4 5 5 5 5 5 6 8 9 9 9 8
9 9 9 8 8 7 7 7 6 6 7 8 7 7 7 7 7 6 6 6 6 5 5 5 5 5 5 6 7 7 5 5 4 5 5 4 5 7 6 7 9 8 9
10 10 9 9 8 7 6 6 6 6 7 8 8 7 7 7 6 6 7 6 5 5 5 5 5 5 5 6 6 6 6 5 5 5 5 6 6 6 7 7 8 8 7
10 10 9 9 8 7 6 6 6 7 7 8 8 8 7 7 7 7 7 6 5 5 5 5 5 6 5 5 6 6 4 4 5 5 5 6 7 8 10 8 8 9 7
10 9 9 8 8 7 5 6 7 7 9 8 8 7 7 8 8 8 7 6 5 5 5 5 5 6 6 5 6 6 4 5 5 5 5 6 7 9 10 8 8 9 9
11 10 9 8 7 6 5 7 8 9 8 7 7 7 7 8 7 6 6 5 5 5 5 5 5 5 6 6 6 7 4 4 5 5 4 4 8 10 11 10 7 9 10
10 9 8 8 7 6 6 8 9 8 6 6 7 7 7 6 6 6 6 6 5 6 6 5 5 4 4 5 6 7 7 6 6 5 5 5 9 11 11 8 8 11 10
10 8 8 9 8 6 7 9 8 6 6 6 7 7 7 6 6 6 6 6 5 5 5 5 4 4 3 4 7 8 8 8 6 5 8 10 11 10 8 8 10 9 6
9 8 8 9 9 7 8 9 7 6 6 7 7 6 7 6 6 6 6 5 6 6 5 5 5 4 4 3 3 4 5 6 6 6 7 9 9 8 8 8 6 5 5
8 7 8 9 10 8 8 7 6 6 7 7 7 6 6 6 6 6 6 7 7 6 6 5 5 5 5 5 6 5 4 4 4 5 5 5 5 5 5 5 5 4 5
8 8 9 9 10 9 8 7 6 7 7 7 7 6 5 5 5 5 5 8 8 9 10 9 8 6 8 8 8 9 9 9 8 7 5 5 5 5 5 5 5 5 5
Wind_Direction
205 187 180 167 151 94 38 27 17 15 9 2 356 358 9 7 11 10 8 3 1 358 355 349 345 343 335 331 327 319 312 313 316 299 293 280 268 263 267 266 262 260 259
201 192 192 189 194 193 49 21 17 13 14 9 355 346 341 348 360 360 5 3 1 360 356 356 350 348 338 340 338 333 319 315 324 310 299 294 276 264 272 266 265 271 271
214 201 199 204 208 216 234 310 352 1 10 4 357 345 330 312 343 356 358 0 0 1 359 355 351 349 345 340 339 336 329 318 316 315 304 301 300 312 276 281 285 297 293
217 210 206 209 212 219 219 229 259 307 340 344 343 344 332 332 340 338 342 349 358 360 359 354 351 348 345 341 337 338 327 319 315 309 303 296 303 294 295 283 288 302 297
216 216 214 216 218 216 214 220 229 247 264 277 292 300 307 322 327 330 336 345 354 358 358 353 349 346 342 340 337 334 330 322 317 315 310 298 294 287 284 289 300 300 294
220 224 222 221 222 216 216 221 225 235 241 243 253 268 288 303 313 327 333 337 340 344 353 347 345 342 339 336 332 329 327 325 320 316 314 308 302 305 292 285 295 295 296
223 224 222 221 222 221 221 222 226 231 232 234 237 246 258 269 284 305 316 320 325 332 340 340 339 339 335 331 328 326 326 325 321 315 310 303 299 299 295 291 294 295 296
228 229 232 232 232 230 227 225 227 231 228 229 232 239 245 252 265 279 290 300 307 316 324 327 330 331 330 328 326 322 324 319 314 312 311 304 305 304 302 301 300 296 289
252 246 242 239 238 236 232 229 228 230 227 226 229 234 236 241 254 266 276 286 295 306 315 319 323 325 327 326 325 321 324 320 320 318 318 313 311 308 304 301 300 297 297
284 271 259 251 246 241 238 232 230 230 227 223 223 228 230 235 245 255 266 278 290 298 304 311 315 318 322 323 321 316 320 320 321 319 318 313 309 307 308 305 307 299 289
292 281 271 262 255 247 239 232 228 226 224 221 220 222 224 226 235 243 257 270 280 288 294 299 303 309 316 321 318 317 318 315 318 324 321 318 317 314 314 312 306 298 291
295 285 275 263 254 247 242 235 229 225 223 221 221 223 224 222 228 238 249 259 269 277 283 288 291 297 304 310 312 312 313 314 318 323 324 322 320 314 311 310 306 301 298
299 292 279 264 257 252 247 240 232 227 222 218 220 223 225 225 230 237 245 252 261 269 274 279 284 290 296 300 302 306 306 310 313 316 316 317 315 312 314 311 308 306 303
292 288 284 276 266 259 252 245 238 229 221 217 221 225 226 226 230 233 239 247 255 262 267 271 277 284 289 289 292 296 299 304 309 311 310 312 312 312 314 310 310 309 305
296 291 287 283 276 266 258 250 242 228 218 218 223 227 227 225 226 228 233 241 249 256 260 264 270 275 279 286 292 288 291 296 301 303 303 305 308 309 309 309 311 309 303
299 298 293 284 277 270 263 254 245 230 218 222 225 223 220 219 221 224 228 234 241 246 250 255 264 270 273 288 288 288 285 290 292 298 302 303 296 300 300 301 304 304 301
301 299 294 285 279 274 267 257 249 234 223 226 227 221 218 219 220 221 226 231 235 240 246 252 258 264 273 282 282 282 282 283 290 298 303 303 304 303 301 302 300 297 296
303 300 295 288 281 276 267 257 244 230 226 228 227 220 217 220 221 222 228 232 234 239 246 252 256 263 271 281 280 283 276 280 288 293 295 299 303 306 310 305 301 298 297
297 294 290 284 277 270 262 251 240 231 229 231 229 222 217 219 219 223 227 228 230 237 243 250 255 262 269 273 276 280 280 279 285 288 291 296 298 307 310 305 303 303 304
297 294 292 283 273 269 258 246 242 236 235 235 233 226 219 220 222 224 225 224 226 234 239 246 250 256 265 271 272 275 273 279 284 285 285 287 296 308 312 307 305 304 309
295 293 287 277 271 268 254 248 246 243 242 239 233 225 220 221 223 223 220 219 221 229 234 242 246 250 258 264 264 266 268 276 285 289 292 295 305 306 309 306 301 304 308
293 291 284 279 275 260 246 249 251 252 245 235 230 226 222 219 217 216 216 215 218 226 233 239 246 246 248 253 258 262 266 279 283 286 292 296 302 303 305 304 305 307 306
292 289 282 281 277 260 245 251 257 253 241 233 230 227 220 217 215 215 213 213 215 224 231 234 242 246 243 245 251 260 267 274 277 282 288 293 299 302 299 298 303 303 298
290 286 281 277 276 270 257 255 260 249 237 234 231 224 219 217 214 214 214 214 215 220 226 232 240 247 247 248 250 254 260 266 270 277 283 286 288 289 291 295 295 291 294
289 283 276 275 277 277 268 262 254 238 235 234 230 224 221 219 218 218 218 220 224 227 231 234 237 244 251 251 259 268 267 271 275 285 280 277 282 285 288 290 292 294 294
289 285 279 277 278 276 271 265 251 234 231 232 228 222 218 218 220 221 226 226 233 237 239 245 247 251 257 268 266 267 273 277 278 279 273 276 279 283 289 294 296 297 297